Regional Weather Roundup
Issued by NWS

Home | Current Version | Previous Version | Text Only | Print | Product List | Glossary Off
Versions: 1 2 3 4 5 6 7 8 9 10 11 12 13 14 15 16 17 18 19 20 21 22 23 24 25 26 27 28 29 30 31 32 33 34 35 36 37 38 39 40 41 42 43 44 45 46 47 48 49 50

000
ASUS43 KMKX 182021
RWRWI

WISCONSIN REGIONAL WEATHER ROUNDUP
NATIONAL WEATHER SERVICE MILWAUKEE/SULLIVAN WI
300 PM CDT SAT APR 18 2015

NOTE: "FAIR" INDICATES FEW OR NO CLOUDS BELOW 12,000 FEET WITH NO
SIGNIFICANT WEATHER AND/OR OBSTRUCTIONS TO VISIBILITY.

WIZ001-002-006>008-014>016-023>028-182100-
NORTHWEST WISCONSIN

CITY           SKY/WX    TMP DP  RH WIND       PRES   REMARKS
SUPERIOR ARPT  SUNNY     42  34  72 NE20G28   30.17F
ASHLAND        SUNNY     47  35  63 NE17      30.17F
HAYWARD        SUNNY     66  23  19 E12G18    30.07F
SIREN          SUNNY     69  29  22 E7        30.05F
CUMBERLAND     MOSUNNY   64  32  29 SE8       30.05F
RICE LAKE      MOSUNNY   69  31  24 E10       30.06F
CHETEK         MOSUNNY   67  35  30 E12G18    30.05F
LADYSMITH      SUNNY     68  29  23 SE7       30.09F
EAU CLAIRE     CLOUDY    71  33  24 E15G23    30.03F
MENOMONIE      CLOUDY    70  31  24 E15       30.03F
NEW RICHMOND   PTSUNNY   71  30  21 SE13G21   30.02F
OSCEOLA        MOSUNNY   70  32  24 E13G18    30.04F
$$

WIZ003>005-009-010-017-018-182100-
NORTH CENTRAL WISCONSIN

CITY           SKY/WX    TMP DP  RH WIND       PRES   REMARKS
MANITOWISH WTR SUNNY     62  25  24 E9        30.13F
ARBOR VITAE    SUNNY     62  20  20 SE12G17   30.12F
WOODRUFF       SUNNY     62  20  20 SE12G17   30.12F
RHINELANDER    SUNNY     63  19  18 SE14G22   30.14F
EAGLE RIVER    SUNNY     61  15  16 E13G18    30.14F
LAND O LAKES   SUNNY     61  16  17 SE13G21   30.15F
PHILLIPS       SUNNY     65  28  24 SE12G17   30.10F
TOMAHAWK       SUNNY     65  22  19 SE9       30.12F
MEDFORD        MOSUNNY   62  30  30 SE12G18   30.11S
MERRILL        SUNNY     64  27  25 SE8       30.12S
$$

WIZ029-030-035-036-043>047-182100-
CENTRAL WISCONSIN

CITY           SKY/WX    TMP DP  RH WIND       PRES   REMARKS
WAUSAU         SUNNY     61  25  25 SE16G24   30.11F
MOSINEE        SUNNY     61  28  29 E10       30.14F
MARSHFIELD     PTSUNNY   63  30  28 E16       30.10F
STEVENS POINT  MOSUNNY   59  24  26 SE16G25   30.14S
WAUPACA        MOSUNNY   63  28  26 NE16G22   30.16S
WAUTOMA        MOSUNNY   64  25  23 E15G22    30.13F
WISC RAPIDS    MOSUNNY   63  24  22 SE13      30.12F
CAMP DOUGLAS   MOSUNNY   68  34  28 E18       30.07F
$$

WIZ011>013-019>022-031-037>040-048>050-182100-
NORTHEAST WISCONSIN

CITY           SKY/WX    TMP DP  RH WIND       PRES   REMARKS
ANTIGO         SUNNY     60  28  29 E15       30.15S
SHAWANO        MOSUNNY   62  27  26 E14       30.18S
OCONTO         MOSUNNY   55  31  38 E12       30.19S
STURGEON BAY   MOSUNNY   55  25  30 NE14      30.21F
GREEN BAY      MOSUNNY   57  37  47 NE17      30.18S
MANITOWOC      MOSUNNY   52  35  52 NE15G21   30.16F
APPLETON       MOSUNNY   57  32  38 NE15      30.16F
CLINTONVILLE   MOSUNNY   61  27  27 E13       30.16F
OSHKOSH        SUNNY     59  30  33 E17G24    30.13F
$$

WIZ032>034-041-042-053>061-182100-
SOUTHWEST WISCONSIN

CITY           SKY/WX    TMP DP  RH WIND       PRES   REMARKS
LA CROSSE      SUNNY     74  35  24 E16G23    30.00F
SPARTA         SUNNY     71  31  23 E17G24    30.05F
VIROQUA        SUNNY     70  36  29 E13G21    30.03F
BOSCOBEL       PTSUNNY   73  37  27 E12       30.01F
PRAIRIE DU CHI MOSUNNY   73  36  26 E16G24    29.98F
PLATTEVILLE    PTSUNNY   71  38  29 E22       30.01F
$$

WIZ056-057-062-063-064-067-068-182100-
SOUTH CENTRAL WISCONSIN

CITY           SKY/WX    TMP DP  RH WIND       PRES   REMARKS
REEDSBURG      SUNNY     67  37  33 E13G22    30.06F
BARABOO/DELLS  SUNNY     66  34  30 E15G24    30.07F
LONE ROCK      MOSUNNY   69  37  30 E14G26    30.04F
MINERAL POINT  MOSUNNY   72  32  23 E16G22    30.03F
MADISON        PTSUNNY   68  34  28 NE18G24   30.07F
MIDDLETON      SUNNY     69  33  25 E12G21    30.07F
WATERTOWN      SUNNY     67  31  26 E9G18     30.08F
MONROE         MOSUNNY   68  34  28 NE10G18   30.03F
JANESVILLE     SUNNY     72  28  20 E17       30.05F
$$

WIZ051-052-058>065-066-070>072-182100-
SOUTHEAST WISCONSIN

CITY           SKY/WX    TMP DP  RH WIND       PRES   REMARKS
MILWAUKEE      MOSUNNY   47  35  63 N22G30    30.13F
WAUKESHA       SUNNY     59  34  38 NE15      30.11F
MILWAUKEE/TIMM SUNNY     54  34  47 NE15      30.12F
RACINE         SUNNY     49  36  61 N17       30.12F
BURLINGTON     SUNNY     63  36  37 NE10      30.07F
KENOSHA        SUNNY     57  38  48 N16G22    30.09F
FOND DU LAC    SUNNY     63  27  25 NE15G25   30.12F
SHEBOYGAN      SUNNY     54  36  50 NE15      30.14F
WEST BEND      SUNNY     57  32  38 NE12      30.11F
JUNEAU         SUNNY     65  26  23 E14G22    30.11F
$$

LSZ147-162-182100-
LAKE SUPERIOR

STATION/POSITION TIME  TEMP    WIND        PRES    WAVE
                       AIR SEA DIR/SP/G            HT/PER
                 (UTC) (F)     (DEG/KT/KT) (MB)    (FT/S)
DEVILS ISLAND    2000   36      60/ 18/ 20 1023.7F
PORT WING        1900   39      40/ 24     1022.0F
SAXON HARBOR     1900   39      10/ 10/ 14 1022.0
$$

LMZ867-665-643>646-182100-
LAKE MICHIGAN

STATION/POSITION TIME  TEMP    WIND        PRES    WAVE
                       AIR SEA DIR/SP/G            HT/PER
                 (UTC) (F)     (DEG/KT/KT) (MB)    (FT/S)
CHAMBERS ISLAND  1900   44      20/ 11/ 12 1023.4S
NORTHPORT PIER   1900   45      70/  3/  9 1023.0F
SISTER BAY       1847   58      20/  9/ 17   N/A
KEWAUNEE LAKESHO 1912   46      30/ 15/ 19 1021.3F
SHEBOYGAN LAKESH 2000   41      10/ 20/ 23 1021.4F
PORT WASHINGTON  1940   47      50/ 16/ 19 1021.0F
MILWAUKEE LAKESH 2000   43      10/ 18/ 21   N/A
KENOSHA   LAKESH 2000   44      20/ 20/ 24 1018.6F
$$

TC  - TEMPERATURE IN CELSIUS
VSB - VISIBILITY IN STATUTE MILES
WCI - WIND CHILL INDEX
HX  - HEAT INDEX




USA.gov is the U.S. government's official web portal to all federal, state and local government web resources and services.